Location: Curupao
(10.4996°N, 66.6442°W)
Time: 23:01:57
(UTC+00:00)

Ariane H10-3 - Pass Details

Date: 23 May 2024
Orbit: 505 x 36370 km, 4.5° (Epoch: 15 June)

Event Time Altitude Azimuth Distance (km) Brightness Sun altitude
Exits shadow 09:13:26 17° 239° (WSW) 1,583 3.0 -12.2°
Maximum altitude 09:15:31 29° 188° (S) 979 2.3 -11.8°
Drops below altitude 10° 09:18:17 10° 123° (ESE) 1,738 4.3 -11.2°
Sets 09:20:44 0° 109° (ESE) 2,956 5.8 -10.6°
